TimeMST,TemperatureF,Dew PointF,Humidity,Sea Level PressureIn,VisibilityMPH,Wind Direction,Wind SpeedMPH,Gust SpeedMPH,PrecipitationIn,Events,Conditions,WindDirDegrees,DateUTC
12:55 AM,48.9,30.9,50,30.26,10.0,NNE,3.5,-,N/A,,Clear,20,2012-01-18 07:55:00
1:55 AM,44.1,30.0,58,30.25,10.0,Calm,Calm,-,N/A,,Clear,0,2012-01-18 08:55:00
2:55 AM,45.0,32.0,60,30.23,10.0,ENE,3.5,-,N/A,,Clear,70,2012-01-18 09:55:00
3:55 AM,44.1,30.9,60,30.24,10.0,North,4.6,-,N/A,,Clear,10,2012-01-18 10:55:00
4:55 AM,44.1,30.0,58,30.25,10.0,ENE,3.5,-,N/A,,Clear,70,2012-01-18 11:55:00
5:55 AM,45.0,28.9,53,30.25,10.0,NE,3.5,-,N/A,,Clear,40,2012-01-18 12:55:00
6:55 AM,43.0,28.9,58,30.26,10.0,North,3.5,-,N/A,,Partly Cloudy,10,2012-01-18 13:55:00
7:55 AM,44.1,28.0,53,30.28,10.0,NNE,3.5,-,N/A,,Scattered Clouds,20,2012-01-18 14:55:00
8:55 AM,46.0,30.0,54,30.30,10.0,Calm,Calm,-,N/A,,Scattered Clouds,0,2012-01-18 15:55:00
9:55 AM,53.1,26.1,35,30.31,10.0,NE,5.8,-,N/A,,Scattered Clouds,40,2012-01-18 16:55:00
10:55 AM,57.9,28.9,33,30.31,10.0,NNE,8.1,-,N/A,,Scattered Clouds,30,2012-01-18 17:55:00
11:55 AM,61.0,30.0,31,30.29,10.0,NNE,9.2,-,N/A,,Scattered Clouds,30,2012-01-18 18:55:00
12:55 PM,66.0,32.0,28,30.25,10.0,ENE,8.1,-,N/A,,Scattered Clouds,60,2012-01-18 19:55:00
1:55 PM,68.0,32.0,26,30.21,10.0,NE,5.8,-,N/A,,Clear,50,2012-01-18 20:55:00
2:55 PM,69.1,32.0,25,30.18,10.0,Variable,6.9,-,N/A,,Partly Cloudy,0,2012-01-18 21:55:00
3:55 PM,70.0,28.0,21,30.17,10.0,NNE,6.9,-,N/A,,Clear,30,2012-01-18 22:55:00
4:55 PM,70.0,28.9,22,30.16,10.0,NNE,4.6,-,N/A,,Clear,20,2012-01-18 23:55:00
5:55 PM,66.9,28.0,23,30.15,10.0,Calm,Calm,-,N/A,,Clear,0,2012-01-19 00:55:00
6:55 PM,62.1,32.0,32,30.15,10.0,NW,4.6,-,N/A,,Clear,310,2012-01-19 01:55:00
7:55 PM,59.0,30.0,33,30.15,10.0,WNW,5.8,-,N/A,,Clear,300,2012-01-19 02:55:00
8:55 PM,54.0,30.9,41,30.16,9.0,WNW,3.5,-,N/A,,Clear,300,2012-01-19 03:55:00
9:55 PM,51.1,30.9,46,30.16,10.0,Calm,Calm,-,N/A,,Clear,0,2012-01-19 04:55:00
10:55 PM,50.0,33.1,52,30.16,10.0,WNW,3.5,-,N/A,,Clear,300,2012-01-19 05:55:00
11:55 PM,50.0,33.1,52,30.14,10.0,Calm,Calm,-,N/A,,Clear,0,2012-01-19 06:55:00